LA3SP-1 Weather Reports


time (UTC)temp
C
wind
direction
speed
KPH
gust
KPH
rain 1hr
cm
rain 24hr
cm
rain mn
cm
humidity
%
barometer
mb
20260507121755 8 270 6.4 0.0 0.00 0.00 0.00 41 1011.9
20260507120754 8 247 0.0 0.0 0.00 0.00 0.00 44 1012.0
20260507114751 7 270 3.2 0.0 0.00 0.00 0.00 45 1012.1
20260507113749 6 270 0.0 0.0 0.00 0.00 0.00 45 1012.0
20260507111747 7 270 3.2 0.0 0.00 0.00 0.00 45 1011.9
20260507110746 6 247 1.6 0.0 0.00 0.00 0.00 45 1011.9
20260507105744 6 270 0.0 0.0 0.00 0.00 0.00 45 1011.8
20260507104743 5 315 0.0 0.0 0.00 0.00 0.00 46 1011.7
20260507103741 5 270 6.4 0.0 0.00 0.00 0.00 46 1011.6
20260507102740 6 292 9.7 0.0 0.00 0.00 0.00 46 1011.5
20260507100737 5 270 1.6 0.0 0.00 0.00 0.00 48 1011.5
20260507095736 5 315 0.0 0.0 0.00 0.00 0.00 48 1011.5
20260507094734 5 270 4.8 0.0 0.00 0.00 0.00 48 1011.3
20260507093733 5 270 0.0 0.0 0.00 0.00 0.00 49 1011.3
20260507091731 5 247 0.0 0.0 0.00 0.00 0.00 51 1011.2
20260507085728 5 247 0.0 0.0 0.00 0.00 0.00 52 1011.1
20260507083725 3 247 0.0 0.0 0.00 0.00 0.00 55 1011.1
20260507082723 3 315 3.2 0.0 0.00 0.00 0.00 55 1010.8
20260507081722 3 292 6.4 0.0 0.00 0.00 0.00 55 1010.8
20260507075719 1 292 4.8 0.0 0.00 0.00 0.00 59 1010.6
20260507074718 0 292 0.0 0.0 0.00 0.00 0.00 60 1010.6
20260507073716 0 292 0.0 0.0 0.00 0.00 0.00 62 1010.5
20260507072715 0 247 1.6 0.0 0.00 0.00 0.00 63 1010.6
20260507071713 0 247 0.0 0.0 0.00 0.00 0.00 65 1010.6
20260507065711 -1 292 3.2 0.0 0.00 0.00 0.00 69 1010.3
20260507064710 -2 292 0.0 0.0 0.00 0.00 0.00 69 1010.4
20260507062707 -3 292 0.0 0.0 0.00 0.00 0.00 71 1010.1
20260507061705 -3 292 0.0 0.0 0.00 0.00 0.00 71 1010.0
20260507054701 -5 292 0.0 0.0 0.00 0.00 0.00 73 1010.0
20260507053723 -5 292 0.0 0.0 0.00 0.00 0.00 74 1010.0
20260507053700 -5 292 0.0 0.0 0.00 0.00 0.00 74 1010.0
20260507052700 -5 292 0.0 0.0 0.00 0.00 0.00 74 1010.0
20260507041649 -6 292 0.0 0.0 0.00 0.00 0.00 73 1009.5
20260507033643 -6 292 0.0 0.0 0.00 0.00 0.00 72 1009.5
20260507032642 -5 292 0.0 0.0 0.00 0.00 0.00 71 1009.4
20260507030639 -5 292 3.2 0.0 0.00 0.00 0.00 72 1009.3
20260507025638 -5 270 4.8 0.0 0.00 0.00 0.00 72 1009.2
20260507023635 -6 292 3.2 0.0 0.00 0.00 0.00 74 1009.1
20260507022634 -6 292 1.6 0.0 0.00 0.00 0.00 73 1009.2
20260507015629 -6 315 4.8 0.0 0.00 0.00 0.00 74 1009.0
20260507014628 -6 292 3.2 0.0 0.00 0.00 0.00 73 1009.1
20260507012625 -5 292 1.6 0.0 0.00 0.00 0.00 72 1009.0
20260507011624 -5 292 0.0 0.0 0.00 0.00 0.00 71 1009.0
20260507010622 -5 292 4.8 0.0 0.00 0.00 0.00 71 1009.1
20260507004620 -4 292 0.0 0.0 0.00 0.00 0.00 70 1009.0
20260507003619 -4 292 0.0 0.0 0.00 0.00 0.00 70 1009.0
20260507001616 -4 292 3.2 0.0 0.00 0.00 0.00 70 1008.8
20260507000614 -4 292 0.0 0.0 0.00 0.00 0.00 70 1008.7
20260506233610 -4 292 4.8 0.0 0.00 0.00 0.00 70 1008.6
20260506232609 -4 292 6.4 0.0 0.00 0.00 0.00 70 1008.6
20260506231607 -4 292 3.2 0.0 0.00 0.00 0.00 70 1008.6
20260506230606 -4 292 3.2 0.0 0.00 0.00 0.00 70 1008.5
20260506223602 -5 315 0.0 0.0 0.00 0.00 0.00 70 1008.4
20260506222601 -5 315 0.0 0.0 0.00 0.00 0.00 70 1008.3
20260506221559 -5 315 0.0 0.0 0.00 0.00 0.00 69 1008.4
20260506220558 -4 315 0.0 0.0 0.00 0.00 0.00 69 1008.4
20260506215556 -4 315 0.0 0.0 0.00 0.00 0.00 69 1008.2
20260506213554 -4 315 0.0 0.0 0.00 0.00 0.00 69 1008.1
20260506212552 -4 315 0.0 0.0 0.00 0.00 0.00 68 1008.2
20260506211551 -4 315 0.0 0.0 0.00 0.00 0.00 68 1008.1
20260506210549 -4 315 4.8 0.0 0.00 0.00 0.00 68 1008.0
20260506205548 -4 315 3.2 0.0 0.00 0.00 0.00 68 1008.0
20260506202544 -3 292 6.4 0.0 0.00 0.00 0.00 65 1008.0
20260506201543 -2 292 1.6 0.0 0.00 0.00 0.00 64 1008.2
20260506195540 -2 292 0.0 0.0 0.00 0.00 0.00 64 1008.0
20260506194538 -2 292 0.0 0.0 0.00 0.00 0.00 63 1008.1
20260506192536 -2 270 3.2 0.0 0.00 0.00 0.00 61 1007.8
20260506191534 -2 270 0.0 0.0 0.00 0.00 0.00 61 1007.9
20260506190533 -1 247 0.0 0.0 0.00 0.00 0.00 61 1008.0
20260506185531 -1 202 0.0 0.0 0.00 0.00 0.00 60 1008.0
20260506185018 0 180 1.6 0.0 0.00 0.00 0.00 58 1007.8
20260506184530 -1 292 12.9 0.0 0.00 0.00 0.00 60 1007.9
20260506183528 0 180 1.6 0.0 0.00 0.00 0.00 58 1007.8
20260506180525 0 157 1.6 0.0 0.00 0.00 0.00 55 1007.3
20260506175523 1 112 3.2 0.0 0.00 0.00 0.00 54 1007.3
20260506174522 1 135 3.2 0.0 0.00 0.00 0.00 54 1007.3
20260506173520 1 90 6.4 0.0 0.00 0.00 0.00 53 1007.2
20260506170516 2 67 4.8 0.0 0.00 0.00 0.00 53 1007.1
20260506165515 2 135 0.0 0.0 0.00 0.00 0.00 53 1007.0
20260506164514 2 157 6.4 0.0 0.00 0.00 0.00 53 1007.0
20260506163512 2 292 16.1 0.0 0.00 0.00 0.00 52 1007.1
20260506162511 2 180 6.4 0.0 0.00 0.00 0.00 52 1007.0
20260506161509 2 180 0.0 0.0 0.00 0.00 0.00 52 1007.2
20260506160449 3 157 0.0 0.0 0.00 0.00 0.00 53 1007.3
20260506155507 3 135 8.0 0.0 0.00 0.00 0.00 52 1007.2
20260506154505 3 270 4.8 0.0 0.00 0.00 0.00 52 1007.1
20260506153504 3 157 0.0 0.0 0.00 0.00 0.00 53 1007.3
20260506152753 3 247 0.0 0.0 0.00 0.00 0.00 50 1007.0
20260506151501 3 202 6.4 0.0 0.00 0.00 0.00 50 1007.1
20260506150500 3 247 0.0 0.0 0.00 0.00 0.00 50 1007.0
20260506145459 4 247 9.7 0.0 0.00 0.00 0.00 47 1007.0
20260506144457 4 247 8.0 0.0 0.00 0.00 0.00 47 1007.2
20260506143456 5 247 0.0 0.0 0.00 0.00 0.00 46 1007.2
20260506142454 5 270 4.8 0.0 0.00 0.00 0.00 46 1007.2
20260506141453 5 270 6.4 0.0 0.00 0.00 0.00 45 1007.3
20260506135450 5 247 1.6 0.0 0.00 0.00 0.00 41 1007.1
20260506134449 5 292 8.0 0.0 0.00 0.00 0.00 41 1007.2
20260506133447 6 270 0.0 0.0 0.00 0.00 0.00 41 1007.0
20260506132446 7 247 9.7 0.0 0.00 0.00 0.00 40 1007.2
20260506131444 8 157 0.0 0.0 0.00 0.00 0.00 44 1007.1
20260506130443 7 225 4.8 0.0 0.00 0.00 0.00 45 1007.2
20260506125441 6 135 6.4 0.0 0.00 0.00 0.00 46 1007.1